Location: *
(44.3925°N, 5.4708°E)
Time: 02:02:08
(UTC+00:00)

Nadezhda 3 Rocket - Pass Details

Date: 18 September 2019
Orbit: 958 x 999 km, 82.9° (Epoch: 22 October)

Event Time Altitude Azimuth Distance (km) Brightness Sun altitude
Exits shadow 20:32:14 47° 43° (NE) 1,255 4.4 -28.9°
Drops below altitude 10° 20:36:50 10° 15° (NNE) 2,717 6.6 -29.6°
Sets 20:39:23 0° 12° (NNE) 3,674 7.3 -30.0°
